TimeEDT,TemperatureF,Dew PointF,Humidity,Sea Level PressureIn,VisibilityMPH,Wind Direction,Wind SpeedMPH,Gust SpeedMPH,PrecipitationIn,Events,Conditions,WindDirDegrees,DateUTC
12:53 AM,64.0,57.9,80,29.94,10.0,NE,5.8,-,N/A,,Clear,40,2012-10-07 04:53:00
1:53 AM,63.0,57.0,81,29.93,10.0,North,5.8,-,N/A,,Clear,10,2012-10-07 05:53:00
2:53 AM,63.0,57.0,81,29.93,10.0,NNE,6.9,-,N/A,,Mostly Cloudy,30,2012-10-07 06:53:00
3:07 AM,62.6,57.2,82,29.96,10.0,NNE,5.8,-,N/A,,Overcast,30,2012-10-07 07:07:00
3:50 AM,62.6,59.0,88,29.95,10.0,NNE,6.9,-,0.02,Rain,Light Rain,30,2012-10-07 07:50:00
3:53 AM,62.1,59.0,90,29.92,10.0,NE,6.9,-,0.02,Rain,Light Rain,50,2012-10-07 07:53:00
4:53 AM,62.1,60.1,93,29.93,10.0,NE,4.6,-,0.02,,Overcast,40,2012-10-07 08:53:00
5:53 AM,61.0,59.0,93,29.94,10.0,NNW,5.8,-,0.00,Rain,Light Rain,330,2012-10-07 09:53:00
6:00 AM,60.8,59.0,94,29.98,2.5,North,5.8,-,0.02,Rain-Thunderstorm,Heavy Thunderstorms and Rain,10,2012-10-07 10:00:00
6:11 AM,60.8,57.2,88,29.99,3.0,North,4.6,-,0.16,Rain-Thunderstorm,Heavy Thunderstorms and Rain,360,2012-10-07 10:11:00
6:18 AM,60.8,57.2,88,30.01,5.0,NNW,5.8,-,0.21,Rain-Thunderstorm,Light Rain,340,2012-10-07 10:18:00
6:44 AM,59.0,57.2,94,29.99,9.0,East,8.1,-,0.22,Rain,Light Rain,90,2012-10-07 10:44:00
6:53 AM,59.0,57.9,96,29.96,10.0,ENE,8.1,-,0.22,Rain,Light Rain,70,2012-10-07 10:53:00
7:53 AM,59.0,57.0,93,29.96,10.0,East,5.8,-,0.00,,Overcast,100,2012-10-07 11:53:00
8:37 AM,60.8,57.2,88,30.01,10.0,NNE,4.6,-,N/A,Thunderstorm,Thunderstorm,30,2012-10-07 12:37:00
8:53 AM,59.0,57.9,96,29.96,6.0,NE,9.2,-,0.00,Rain-Thunderstorm,Thunderstorms and Rain,50,2012-10-07 12:53:00
9:22 AM,59.0,57.2,94,30.02,10.0,NE,6.9,-,0.02,,Overcast,40,2012-10-07 13:22:00
9:53 AM,59.0,57.0,93,30.01,10.0,NNE,6.9,-,0.02,,Overcast,30,2012-10-07 13:53:00
10:09 AM,59.0,55.4,88,30.03,10.0,NE,4.6,-,N/A,,Overcast,40,2012-10-07 14:09:00
10:33 AM,59.0,55.4,88,30.04,10.0,NE,8.1,-,N/A,,Overcast,40,2012-10-07 14:33:00
10:53 AM,60.1,55.9,86,30.01,10.0,NE,8.1,-,N/A,,Overcast,40,2012-10-07 14:53:00
11:49 AM,60.8,55.4,82,30.04,10.0,NNE,5.8,-,N/A,,Overcast,30,2012-10-07 15:49:00
11:53 AM,60.1,55.0,83,30.03,10.0,NNE,5.8,-,N/A,,Overcast,30,2012-10-07 15:53:00
12:53 PM,62.1,55.0,78,30.02,10.0,East,4.6,-,N/A,,Overcast,80,2012-10-07 16:53:00
1:53 PM,63.0,57.0,81,29.99,10.0,NE,4.6,-,N/A,,Overcast,50,2012-10-07 17:53:00
2:53 PM,64.9,57.0,75,29.98,10.0,NE,4.6,-,N/A,,Overcast,50,2012-10-07 18:53:00
3:53 PM,64.9,57.0,75,29.98,10.0,Variable,4.6,-,N/A,,Mostly Cloudy,0,2012-10-07 19:53:00
4:53 PM,62.1,55.9,80,30.00,10.0,NNE,12.7,-,N/A,,Overcast,20,2012-10-07 20:53:00
5:53 PM,60.1,51.1,72,30.01,10.0,NNE,11.5,-,N/A,,Overcast,20,2012-10-07 21:53:00
6:53 PM,57.9,51.1,78,30.04,10.0,NE,9.2,-,N/A,,Overcast,40,2012-10-07 22:53:00
7:11 PM,57.2,53.6,88,30.06,10.0,NE,10.4,-,N/A,,Overcast,40,2012-10-07 23:11:00
7:53 PM,57.0,52.0,83,30.06,10.0,NE,8.1,-,N/A,,Overcast,40,2012-10-07 23:53:00
8:53 PM,57.0,53.1,87,30.07,10.0,NNE,6.9,-,N/A,,Overcast,30,2012-10-08 00:53:00
9:14 PM,57.2,53.6,88,30.09,10.0,NNE,6.9,-,N/A,,Overcast,30,2012-10-08 01:14:00
9:53 PM,57.0,52.0,83,30.09,10.0,NNE,8.1,-,N/A,,Overcast,30,2012-10-08 01:53:00
10:11 PM,57.2,53.6,88,30.10,10.0,NNE,8.1,-,N/A,,Overcast,20,2012-10-08 02:11:00
10:53 PM,55.9,51.1,84,30.10,10.0,North,6.9,-,N/A,,Overcast,10,2012-10-08 02:53:00
11:46 PM,55.4,51.8,88,30.11,10.0,NNE,6.9,-,N/A,,Overcast,20,2012-10-08 03:46:00
11:53 PM,55.9,51.1,84,30.11,10.0,NNE,6.9,-,N/A,,Overcast,30,2012-10-08 03:53:00